{"data":{"norad_id":66496,"epoch":"2026-05-24T18:44:25.958400Z","epoch_age_seconds":94133,"freshness":"FRESH","line1":"1 66496U 25263M   26144.78085600  .00007328  00000+0  27547-3 0  9997","line2":"2 66496  43.0022 281.1815 0002037 273.6394  86.4224 15.27589839 30530","mean_motion":15.27589839,"eccentricity":0.0002037,"inclination_deg":43.0022,"raan_deg":281.1815,"arg_perigee_deg":273.6394,"mean_anomaly_deg":86.4224,"bstar":0.00027547,"rev_number":3053,"period_min":94.266141554245,"perigee_km":481.62201708574,"apogee_km":484.41725229871,"semimajor_km":6861.1566346922,"source":"CELESTRAK","updated_at":"2026-05-25T13:38:21.244031Z"}}